Вернуться в каталог

STARLINK-11712

АктивенСвязьVLEO
NORAD 64135·PAYLOAD·🇺🇸 United States

Запущен May 24, 2025 с Cape Canaveral Space Force Station

Loading…

Ближайшие Пролёты (ближайшие 24 часа)

TLE

СвежийSource: CelesTrak SupGP

Эпоха: Sep 14, 2026, 21:03 UTC

1 64135C 25111N   26257.87756944 -.00022901  00000+0 -17793-3 0  2573
2 64135  43.0007 273.8752 0001553 257.0269 298.8324 15.70841926    14

Отслеживайте STARLINK-11712 в реальном времени с AllMySat

Download on the App Store